User: anonymous   Login
Location: Unspecified
(0.0000°N, 0.0000°E)
Time: 00:57:44
(UTC+01:00)
Language:

PSLV R/B - Orbit

View from above orbital plane
View from above orbital plane
View from above satellite
View from above satellite

Ground track
Ground track

The orbit data is extracted from the following two-line orbital elements,

1 29713U 07001E   18016.94093612 +.00000138 +00000-0 +22200-4 0  9992
2 29713 097.7932 349.4290 0026484 112.6263 247.7757 14.85224793595684
Epoch (UTC): 16 January 2018 22:34:56
Eccentricity: 0.0026484
inclination: 97.7932°
perigee height: 594 km
apogee height: 631 km
right ascension of ascending node: 349.4290°
argument of perigee: 112.6263°
revolutions per day: 14.85224793
mean anomaly at epoch: 247.7757°
orbit number at epoch: 59568

The dashed part of the orbit path shows where the satellite is in the earth's shadow,  

DLR